Regional Weather Roundup
Issued by NWS

Home | Current Version | Previous Version | Graphics & Text | Print | Product List | Glossary On
Versions: 1 2 3 4 5 6 7 8 9 10 11 12 13 14 15 16 17 18 19 20 21 22 23 24 25 26 27 28 29 30 31 32 33 34 35 36 37 38 39 40 41 42 43 44 45 46 47 48 49 50
000
ASUS43 KOAX 040910
RWRNE

WEATHER ROUNDUP FOR NEBRASKA
NATIONAL WEATHER SERVICE OMAHA NE
400 AM CDT SAT JUL 04 2015

NOTES: SATELLITE DATA IS BEING USED TO AUGMENT CLOUD COVER ABOVE
       12000 FEET.
       "FAIR" INDICATES FEW OR NO CLOUDS BELOW 12,000 FEET WITH NO
       SIGNIFICANT WEATHER AND/OR OBSTRUCTIONS TO VISIBILITY.

  * THESE STATIONS DO NOT REPORT WEATHER SUCH AS RAIN...SNOW OR FOG.

NEZ001>004-019>022-054>056-041000-
NEBRASKA PANHANDLE

CITY           SKY/WX    TMP DP  RH WIND       PRES   REMARKS
SCOTTSBLUFF    CLOUDY    68  59  73 E10       29.96F
ALLIANCE       MOCLDY    66  60  81 S9        29.99F
CHADRON        PTCLDY    70  58  65 S9        29.92F
KIMBALL          N/A    N/A N/A N/A MISG        N/A
SIDNEY         PTCLDY    65  59  81 S12       30.03S
$$

NEZ057>060-069>072-079>082-041000-
SOUTHWEST NEBRASKA

CITY           SKY/WX    TMP DP  RH WIND       PRES   REMARKS
NORTH PLATTE   CLEAR     66  59  78 SE9       30.00F
IMPERIAL       PTCLDY    64  58  80 SE8       30.00F
LEXINGTON      CLEAR     64  61  90 S5        30.01R
MCCOOK         MOCLDY    65  59  81 SE5       30.00F
OGALLALA       PTCLDY    65  60  84 CALM      30.00F
$$

NEZ005>010-023>029-035>040-094-041000-
NORTH CENTRAL NEBRASKA

CITY           SKY/WX    TMP DP  RH WIND       PRES   REMARKS
VALENTINE      PTCLDY    65  60  84 S8        29.97R
AINSWORTH      CLEAR     63  62  97 S8        29.97F
BROKEN BOW     CLEAR     60  57  89 CALM      30.01R FOG
O`NEILL        CLEAR     62  62  99 S5        29.98F FOG
ORD            CLEAR     61  59  93 CALM      29.99S FOG
THEDFORD       PTCLDY    64  61  90 S8        30.00F
$$

NEZ041-046>049-061>064-073>077-083>087-041000-
SOUTH CENTRAL NEBRASKA

CITY           SKY/WX    TMP DP  RH WIND       PRES   REMARKS
GRAND ISLAND   CLEAR     62  59  90 S6        30.01S
AURORA         CLEAR     64  62  94 S5        30.00S
HASTINGS       CLEAR     63  60  90 S5        30.01S
HEBRON         CLEAR     61  59  91 CALM      30.00S FOG
HOLDREGE       CLEAR     60  58  91 CALM      30.01F
KEARNEY *      CLEAR     61  57  88 CALM      30.01F
YORK           PTCLDY    61  59  94 S3        30.00S FOG
$$

NEZ011>018-030>034-042>045-041000-
NORTHEAST NEBRASKA

CITY           SKY/WX    TMP DP  RH WIND       PRES   REMARKS
NORFOLK        CLEAR     60  59  96 SW3       29.99S FOG
ALBION         CLEAR     59  56  90 CALM      30.00S FOG
BLAIR          CLEAR     62  55  79 CALM      29.99S
COLUMBUS *       N/A     55  52  88 CALM      29.98F VSB<1/4
FREMONT        CLEAR     64  57  78 CALM      29.99S
TEKAMAH        FAIR      56  53  90 CALM      29.98S
WAYNE          CLEAR     57  56  97 CALM      30.00S FOG
$$

NEZ050>053-065>068-078-088>093-041000-
SOUTHEAST NEBRASKA

CITY           SKY/WX    TMP DP  RH WIND       PRES   REMARKS
LINCOLN        CLEAR     64  59  83 CALM      29.99F
OMAHA EPPLEY   CLEAR     60  58  92 CALM      29.98F FOG
BEATRICE       CLEAR     59  57  92 CALM      29.99F
FALLS CITY     CLEAR     60  59  96 CALM      29.99R
NEBRASKA CITY  CLEAR     63  52  67 S3        29.99S
PLATTSMOUTH    CLEAR     62  53  73 CALM      29.99S
$$

NEZ044-045-051>053-067-041000-
OMAHA AREA

CITY           SKY/WX    TMP DP  RH WIND       PRES   REMARKS
OMAHA EPPLEY   CLEAR     60  58  92 CALM      29.98F FOG
BLAIR          CLEAR     62  55  79 CALM      29.99S
FREMONT        CLEAR     64  57  78 CALM      29.99S
MILLARD          N/A     59  58  96 CALM      29.99S FOG
OFFUTT AFB     CLEAR     56  56  99 E2        29.97F
PLATTSMOUTH    CLEAR     62  53  73 CALM      29.99S
WAHOO          FAIR      62  60  93 CALM      29.99S
$$



USA.gov is the U.S. government's official web portal to all federal, state and local government web resources and services.